Tracking 28799 objects as of 18-Apr-2024
HD Live streaming from Space Station
objects crossing your sky now

CZ-6A DEB

Track CZ-6A DEB now!
10-day predictions


NORAD ID: 56653
Int'l Code: 2022-151AGD
Perigee: 611.3 km
Apogee: 811.2 km
Inclination: 98.7 °
Period: 98.9 minutes
Semi major axis: 7082 km
RCS: Unknown
Launch date: November 11, 2022
Source: People's Republic of China (PRC)
Launch site: Taiyaun Space Center, China (TSC)

Note: This is SATELLITE DEBRIS
Your satellite tracking list
Your tracking list is empty




NASA's NSSDC Master Catalog

Two Line Element Set (TLE):
1 56653U 22151AGD 24107.31426879  .00012148  00000-0  23861-2 0  9998
2 56653  98.6826 142.0068 0141139 131.8024 229.5330 14.56611760 52182
Source of the keplerian elements: AFSPC